Location: Peterborough
(44.3048°N, 78.3199°W)
Time: 14:38:46
(UTC-04:00)

ISS - Visible Passes

Search period start: 14 April 2024 00:00
Search period end: 24 April 2024 00:00
Orbit: 413 x 419 km, 51.6° (Epoch: 14 April)

Date Brightness Start Highest point End Pass type
(mag) Time Alt. Az. Time Alt. Az. Time Alt. Az.
18 Apr -0.9 05:47:45 10° SSE 05:48:52 11° SE 05:49:59 10° ESE visible
20 Apr -2.1 05:44:54 10° SSW 05:47:48 28° SE 05:50:44 10° ENE visible
21 Apr -1.5 04:56:58 10° S 04:59:13 17° SE 05:01:30 10° E visible
22 Apr -1.0 04:10:13 10° SE 04:10:38 10° SE 04:11:04 10° ESE visible
22 Apr -3.6 05:43:29 10° SW 05:46:48 73° SSE 05:50:08 10° ENE visible
23 Apr -3.0 04:56:14 22° SSW 04:58:02 43° SE 05:01:13 10° ENE visible
